Flag Weather past 2 weeks in Antioch, California, U.S.A.

Now
57 °F

Clear.


Feels Like: 57 °F
Forecast: 46 / 64 °F
Wind: No wind

Location: Buchanan Field

Current Time: Nov 22, 2014 at 9:00:15 PM

Latest Report: Nov 22, 2014 at 7:53 PM


Visibility: 10 mi

Pressure: 30.16 "Hg

Humidity: 74%

Dew point: 49 °F

Location of AntiochLocation

Historic Weather in Antioch — Graph

°F

Antioch temperature yesterday

Maximum temperature yesterday: 61 °F (at 1:00 PM)
Minimum temperature yesterday: 52 °F (at 2:53 AM)
Average temperature yesterday: 56 °F

Past Weeks' High & Low Weather Summary

 TemperatureHumidityPressure
High78 °F (Nov 8, 2:53 PM)100% (Nov 13, 7:53 AM)30.24 "Hg (Nov 13, 7:53 AM)
Low42 °F (Nov 17, 3:53 AM)19% (Nov 16, 11:53 AM)29.73 "Hg (Nov 10, 4:53 PM)
Average57 °F72%30.01 "Hg
* Reported Nov 7 7:53 PM — Nov 22 7:53 PM, Antioch, Weather by CustomWeather, © 2014

Note: Actual official high and low records may vary slightly from our data, if they occured in-between our weather recording intervals... More about our weather records

Advertising

Antioch weather history for previous 24 hours

 ConditionsComfort  
Time TempWeatherWind HumidityBarometerVisibility
7:53 PM
Nov 22
57 °FClear.No wind74%30.16 "Hg10 mi
6:53 PM59 °FClear.6 mph64%30.14 "Hg10 mi
5:53 PM62 °FClear.6 mph62%30.10 "Hg10 mi
4:53 PM63 °FClear.12 mph68%30.09 "Hg10 mi
3:53 PM67 °FSunny.14 mph59%30.07 "Hg10 mi
2:53 PM68 °FPassing clouds.13 mph55%30.07 "Hg10 mi
1:53 PM68 °FPassing clouds.13 mph61%30.05 "Hg10 mi
12:53 PM66 °FBroken clouds.8 mph70%30.06 "Hg10 mi
11:53 AM65 °FBroken clouds.13 mph76%30.05 "Hg10 mi
10:53 AM62 °FPartly sunny.13 mph93%30.04 "Hg7 mi
9:58 AM60 °FLight rain. Fog.14 mph93%30.08 "Hg2 mi
8:53 AM59 °FLight rain. Fog.16 mph93%30.01 "Hg2 mi
8:00 AM59 °FFog.13 mph90%30.05 "Hg6 mi
6:53 AM57 °FLight rain. Fog.13 mph93%30.01 "Hg4 mi
5:53 AM58 °FFog.13 mph87%30.00 "Hg6 mi
4:53 AM57 °FOvercast.16 mph87%29.99 "Hg10 mi
3:53 AM59 °FMostly cloudy.13 mph75%30.02 "Hg10 mi
2:53 AM60 °FMostly cloudy.13 mph69%30.03 "Hg10 mi
1:53 AM59 °FMostly cloudy.10 mph75%30.05 "Hg10 mi
12:53 AM59 °FMostly cloudy.3 mph75%30.07 "Hg10 mi
11:53 PM
Nov 21
59 °FOvercast.3 mph75%30.08 "Hg10 mi
10:53 PM58 °FOvercast.6 mph81%30.09 "Hg10 mi
9:53 PM57 °FOvercast.No wind87%30.07 "Hg8 mi
Weather by CustomWeather, © 2014

See weather overviewHow to use our weather pages